Pine River, MN

4:11 AM CDT on September 26, 2016 (GMT -0500)
Pine River Regional

Weather History for KPWC - February, 2013

Change the Weather History Date:

Monday, February 18, 2013

  Actual Average Record
Temperature  
Mean Temperature 14 °F -  
Max Temperature 26 °F 26 °F 50 °F (2002)
Min Temperature 3 °F 7 °F -23 °F (2006)
Degree Days  
Heating Degree Days 50    
Moisture  
Dew Point 11 °F    
Average Humidity 78    
Maximum Humidity 86    
Minimum Humidity 67    
Precipitation  
Precipitation 0.00 in - - ()
Sea Level Pressure  
Sea Level Pressure 29.65 in    
Wind  
Wind Speed 9 mph (NW)    
Max Wind Speed 18 mph    
Max Gust Speed 30 mph    
Visibility 8 miles    
Events Snow    
Averages and records for this station are not official NWS values.
T = Trace of Precipitation, MM = Missing Value Source: NWS Daily Summary

Daily Weather History Graph

Daily Weather History Graph

Search for Another Location

Airport or City:

Trip Planner

Search our weather history database for the weather conditions in past years. The results will help you decide how hot, cold, wet, or windy it might be!

Date:

Astronomy

Feb. 18, 2013 Rise Set
Actual Time 7:16 AM CST 5:47 PM CST
Civil Twilight 6:45 AM CST 6:18 PM CST
Nautical Twilight 6:09 AM CST 6:53 PM CST
Astronomical Twilight 5:34 AM CST 7:28 PM CST
Moon 11:23 AM CST (2/18) 2:06 AM CST (2/18)
Length of Visible Light 11h 33m
Length of Day
10h 31m
First Quarter, 58% of the Moon is Illuminated
Feb 18
First Quarter
Feb 25
Full
Mar 4
Last Quarter
Mar 11
New
Mar 19
First Quarter

Hourly Weather History & Observations

Time (CST) Temp. Windchill Dew Point Humidity Pressure Visibility Wind Dir Wind Speed Gust Speed Precip Events Conditions
12:12 AM 24.8 °F 15.3 °F 19.4 °F 80% 29.58 in 10.0 mi SSE 9.2 mph - N/A   Clear
12:33 AM 24.8 °F 16.9 °F 19.4 °F 80% 29.57 in 10.0 mi SSE 6.9 mph - N/A   Clear
12:53 AM 24.8 °F 16.9 °F 19.4 °F 80% 29.56 in 10.0 mi SSE 6.9 mph - N/A   Mostly Cloudy
1:12 AM 24.8 °F 16.1 °F 19.4 °F 80% 29.55 in 10.0 mi SSE 8.1 mph - N/A   Overcast
1:33 AM 24.8 °F 16.9 °F 19.4 °F 80% 29.55 in 10.0 mi SSE 6.9 mph - N/A   Overcast
1:52 AM 24.8 °F 16.9 °F 19.4 °F 80% 29.55 in 10.0 mi SSE 6.9 mph - N/A   Overcast
2:32 AM 24.8 °F 16.9 °F 19.4 °F 80% 29.55 in 10.0 mi SSE 6.9 mph - N/A   Overcast
2:53 AM 24.8 °F 16.9 °F 19.4 °F 80% 29.53 in 10.0 mi SE 6.9 mph - N/A   Overcast
3:12 AM 24.8 °F 16.9 °F 19.4 °F 80% 29.52 in 10.0 mi SE 6.9 mph - N/A   Overcast
3:33 AM 24.8 °F 17.9 °F 19.4 °F 80% 29.52 in 10.0 mi ESE 5.8 mph - N/A   Overcast
3:53 AM 23.0 °F 14.7 °F 19.4 °F 86% 29.51 in 10.0 mi ESE 6.9 mph - N/A   Overcast
4:11 AM 23.0 °F 18.4 °F 19.4 °F 86% 29.51 in 10.0 mi ESE 3.5 mph - N/A   Overcast
4:32 AM 23.0 °F 17.0 °F 19.4 °F 86% 29.51 in 10.0 mi ESE 4.6 mph - N/A   Overcast
4:52 AM 23.0 °F 18.4 °F 19.4 °F 86% 29.51 in 10.0 mi ESE 3.5 mph - N/A   Overcast
5:13 AM 23.0 °F 18.4 °F 19.4 °F 86% 29.51 in 10.0 mi ESE 3.5 mph - N/A   Overcast
5:33 AM 23.0 °F - 19.4 °F 86% 29.52 in 10.0 mi Calm Calm - N/A   Overcast
5:52 AM 23.0 °F 18.4 °F 19.4 °F 86% 29.51 in 10.0 mi ESE 3.5 mph - N/A   Overcast
6:12 AM 23.0 °F 18.4 °F 19.4 °F 86% 29.51 in 10.0 mi ESE 3.5 mph - N/A   Overcast
6:33 AM 23.0 °F 18.4 °F 19.4 °F 86% 29.51 in 10.0 mi SE 3.5 mph - N/A   Overcast
6:52 AM 23.0 °F - 19.4 °F 86% 29.51 in 10.0 mi Calm Calm - N/A   Overcast
7:12 AM 23.0 °F - 19.4 °F 86% 29.50 in 10.0 mi Calm Calm - N/A   Overcast
7:33 AM 23.0 °F - 19.4 °F 86% 29.50 in 10.0 mi Calm Calm - N/A   Overcast
8:33 AM 24.8 °F - 19.4 °F 80% 29.51 in 10.0 mi Calm Calm - N/A   Overcast
8:53 AM 24.8 °F 20.5 °F 21.2 °F 86% 29.51 in 7.0 mi WSW 3.5 mph - N/A   Overcast
9:12 AM 26.6 °F 19.1 °F 21.2 °F 80% 29.52 in 7.0 mi West 6.9 mph - N/A   Overcast
9:32 AM 26.6 °F 20.0 °F 21.2 °F 80% 29.53 in 10.0 mi WNW 5.8 mph - N/A   Overcast
9:53 AM 24.8 °F 15.3 °F 19.4 °F 80% 29.54 in 10.0 mi West 9.2 mph 16.1 mph N/A   Overcast
10:13 AM 24.8 °F 16.1 °F 19.4 °F 80% 29.55 in 10.0 mi West 8.1 mph - N/A   Overcast
10:32 AM 24.8 °F 16.1 °F 19.4 °F 80% 29.56 in 10.0 mi WNW 8.1 mph - N/A   Overcast
10:52 AM 23.0 °F 13.9 °F 17.6 °F 80% 29.56 in 10.0 mi West 8.1 mph - N/A   Overcast
11:13 AM 23.0 °F 14.7 °F 17.6 °F 80% 29.57 in 10.0 mi West 6.9 mph - N/A   Overcast
11:32 AM 24.8 °F 14.6 °F 17.6 °F 74% 29.58 in 10.0 mi WNW 10.4 mph 17.3 mph N/A   Overcast
11:52 AM 23.0 °F 12.4 °F 17.6 °F 80% 29.59 in 10.0 mi NW 10.4 mph 18.4 mph N/A   Overcast
12:13 PM 23.0 °F 11.7 °F 17.6 °F 80% 29.60 in 10.0 mi WNW 11.5 mph 18.4 mph N/A   Overcast
12:33 PM 21.2 °F 9.5 °F 15.8 °F 80% 29.60 in 10.0 mi WNW 11.5 mph 19.6 mph N/A   Overcast
12:53 PM 19.4 °F 6.0 °F 12.2 °F 74% 29.62 in 10.0 mi WNW 13.8 mph 19.6 mph N/A   Overcast
1:13 PM 17.6 °F 3.7 °F 10.4 °F 73% 29.63 in 10.0 mi NW 13.8 mph 19.6 mph N/A   Overcast
1:33 PM 17.6 °F 5.7 °F 10.4 °F 73% 29.63 in 10.0 mi NW 10.4 mph 18.4 mph N/A Snow Light Snow
1:52 PM 15.8 °F 2.1 °F 8.6 °F 73% 29.64 in 10.0 mi NW 12.7 mph 23.0 mph N/A   Overcast
2:13 PM 15.8 °F 2.7 °F 8.6 °F 73% 29.65 in 10.0 mi WNW 11.5 mph 18.4 mph N/A Snow Light Snow
2:33 PM 15.8 °F 1.4 °F 8.6 °F 73% 29.65 in 10.0 mi NNW 13.8 mph 21.9 mph N/A Snow Light Snow
2:52 PM 15.8 °F 0.3 °F 8.6 °F 73% 29.67 in 10.0 mi NW 16.1 mph 23.0 mph N/A Snow Light Snow
3:13 PM 15.8 °F 3.4 °F 6.8 °F 68% 29.68 in 10.0 mi NNW 10.4 mph 21.9 mph N/A Snow Light Snow
3:33 PM 14.0 °F -0.2 °F 6.8 °F 73% 29.69 in 7.0 mi NW 12.7 mph 26.5 mph N/A Snow Light Snow
3:53 PM 14.0 °F -0.2 °F 6.8 °F 73% 29.70 in 10.0 mi NNW 12.7 mph 23.0 mph N/A Snow Light Snow
4:13 PM 12.2 °F -4.8 °F 5.0 °F 73% 29.71 in 10.0 mi NW 17.3 mph 21.9 mph N/A Snow Light Snow
4:33 PM 12.2 °F -1.8 °F 5.0 °F 73% 29.73 in 10.0 mi NW 11.5 mph 23.0 mph N/A   Overcast
4:52 PM 12.2 °F -3.1 °F 5.0 °F 73% 29.74 in 7.0 mi NW 13.8 mph 21.9 mph N/A Snow Light Snow
5:13 PM 12.2 °F -2.5 °F 5.0 °F 73% 29.75 in 4.0 mi NW 12.7 mph 18.4 mph N/A Snow Light Snow
5:32 PM 10.4 °F -4.1 °F 3.2 °F 73% 29.76 in 5.0 mi NW 11.5 mph 18.4 mph N/A Snow Light Snow
5:52 PM 10.4 °F -5.4 °F 3.2 °F 73% 29.78 in 7.0 mi NW 13.8 mph 19.6 mph N/A Snow Light Snow
6:12 PM 10.4 °F -4.8 °F 3.2 °F 73% 29.78 in 5.0 mi NW 12.7 mph 21.9 mph N/A Snow Light Snow
6:32 PM 8.6 °F -7.0 °F 3.2 °F 79% 29.79 in 2.5 mi NW 12.7 mph 19.6 mph N/A Snow Light Snow
6:53 PM 8.6 °F -7.7 °F 3.2 °F 79% 29.80 in 3.0 mi NW 13.8 mph 17.3 mph N/A Snow Light Snow
7:12 PM 8.6 °F -7.7 °F 3.2 °F 79% 29.81 in 4.0 mi NW 13.8 mph 18.4 mph N/A Snow Light Snow
7:32 PM 6.8 °F -9.3 °F 1.4 °F 79% 29.81 in 5.0 mi NW 12.7 mph 19.6 mph N/A   Haze
7:52 PM 6.8 °F -9.3 °F 1.4 °F 79% 29.81 in 4.0 mi NW 12.7 mph 19.6 mph N/A Snow Light Snow
8:13 PM 6.8 °F -10.0 °F 1.4 °F 79% 29.82 in 5.0 mi NNW 13.8 mph 18.4 mph N/A   Haze
8:33 PM 6.8 °F -11.3 °F 1.4 °F 79% 29.82 in 7.0 mi NNW 16.1 mph 24.2 mph N/A   Overcast
8:52 PM 6.8 °F -10.0 °F 1.4 °F 79% 29.83 in 5.0 mi NNW 13.8 mph 23.0 mph N/A   Haze
9:12 PM 6.8 °F -12.4 °F -0.4 °F 72% 29.83 in 5.0 mi NNW 18.4 mph 24.2 mph N/A   Haze
9:33 PM 6.8 °F -11.3 °F -2.2 °F 67% 29.84 in 7.0 mi NNW 16.1 mph 28.8 mph N/A   Scattered Clouds
9:53 PM 5.0 °F -13.0 °F -0.4 °F 78% 29.85 in 5.0 mi NNW 15.0 mph 23.0 mph N/A   Haze
10:12 PM 5.0 °F -14.2 °F -2.2 °F 72% 29.86 in 7.0 mi NNW 17.3 mph 26.5 mph N/A   Mostly Cloudy
10:32 PM 5.0 °F -10.8 °F -2.2 °F 72% 29.87 in 10.0 mi NNW 11.5 mph 26.5 mph N/A   Scattered Clouds
10:52 PM 3.2 °F -14.6 °F -2.2 °F 78% 29.88 in 10.0 mi NNW 13.8 mph 20.7 mph N/A   Mostly Cloudy
11:12 PM 3.2 °F -17.1 °F -4.0 °F 72% 29.88 in 7.0 mi NNW 18.4 mph 24.2 mph N/A   Mostly Cloudy
11:32 PM 3.2 °F -16.5 °F -4.0 °F 72% 29.89 in 7.0 mi NNW 17.3 mph 29.9 mph N/A   Mostly Cloudy
11:53 PM 3.2 °F -15.9 °F -4.0 °F 72% 29.89 in 7.0 mi NNW 16.1 mph 25.3 mph N/A   Mostly Cloudy